Flag for Israel Past Weather in Modi'in-Maccabim-Re'ut, Israel — Yesterday and Last 2 Weeks

Now
81 °F

Passing clouds.


Feels Like: 85 °F
Forecast: 73 / 89 °F
Wind: 3 mph from North

Location: Ben Gurion International Airport

Current Time: Jul 27, 2016 at 10:24:47 PM

Latest Report: Jul 27, 2016 at 9:50 PM


Visibility: N/A

Pressure: 29.74 "Hg

Humidity: 74%

Dew Point: 72 °F

Location of Modi'in-Maccabim-Re'utLocation

Past Weather in Modi'in-Maccabim-Re'ut — Graph

°F

Modi'in-Maccabim-Re'ut Temperature Yesterday

Maximum temperature yesterday: 91 °F (at 12:20 PM)
Minimum temperature yesterday: 77 °F (at 2:20 AM)
Average temperature yesterday: 83 °F

High & Low Weather Summary for the Past Weeks

 TemperatureHumidityPressure
High91 °F (Jul 13, 10:20 AM)84% (Jul 12, 10:20 PM)29.89 "Hg (Jul 12, 10:20 PM)
Low73 °F (Jul 22, 5:20 AM)20% (Jul 26, 8:50 PM)29.65 "Hg (Jul 19, 11:20 AM)
Average83 °F64%29.75 "Hg
* Reported Jul 12 9:20 PM — Jul 27 9:20 PM, Modi'in-Maccabim-Re'ut, Weather by CustomWeather, © 2016

Note: Actual official high and low records may vary slightly from our data, if they occured in-between our weather recording intervals... More about our weather records

Advertising

Modi'in-Maccabim-Re'ut Weather History for the Previous 24 Hours

Scroll right to see more
 ConditionsComfort  
Time TempWeatherWind HumidityBarometerVisibility
9:20 PM
Wed, Jul 27
81 °FPassing clouds.6 mph74%29.74 "HgN/A
8:50 PM82 °FPassing clouds.6 mph74%29.74 "HgN/A
8:20 PM82 °FPassing clouds.6 mph74%29.74 "HgN/A
7:50 PM82 °FPassing clouds.7 mph70%29.74 "HgN/A
7:20 PM84 °FPassing clouds.6 mph66%29.74 "HgN/A
6:50 PM86 °FPassing clouds.8 mph62%29.74 "HgN/A
6:20 PM84 °FPassing clouds.8 mph66%29.71 "HgN/A
5:50 PM86 °FPassing clouds.8 mph62%29.71 "HgN/A
5:20 PM86 °FPassing clouds.10 mph62%29.71 "HgN/A
4:50 PM88 °FPassing clouds.12 mph59%29.71 "HgN/A
4:20 PM88 °FPassing clouds.12 mph59%29.71 "HgN/A
3:50 PM86 °FPassing clouds.13 mph62%29.71 "HgN/A
3:20 PM88 °FPassing clouds.13 mph59%29.71 "HgN/A
2:50 PM88 °FPassing clouds.12 mph59%29.74 "HgN/A
2:20 PM90 °FPassing clouds.12 mph55%29.74 "HgN/A
1:50 PM88 °FPassing clouds.12 mph59%29.74 "HgN/A
1:20 PM90 °FPassing clouds.10 mph52%29.74 "HgN/A
12:50 PM90 °FPassing clouds.13 mph55%29.74 "HgN/A
12:20 PM90 °FPassing clouds.12 mph55%29.74 "HgN/A
11:50 AM90 °FPassing clouds.10 mph55%29.74 "HgN/A
11:20 AM88 °FPassing clouds.6 mph59%29.74 "HgN/A
10:50 AM88 °FPassing clouds.5 mph55%29.74 "HgN/A
10:20 AM86 °FPassing clouds.3 mph59%29.74 "HgN/A
9:50 AM84 °FScattered clouds.6 mph62%29.77 "HgN/A
9:20 AM82 °FScattered clouds.6 mph70%29.77 "HgN/A
8:50 AM82 °FPartly sunny.5 mph70%29.74 "Hg6 mi
8:20 AM81 °FPartly sunny.7 mph74%29.74 "Hg6 mi
7:50 AM81 °FScattered clouds.7 mph70%29.77 "Hg6 mi
7:20 AM79 °FScattered clouds.6 mph74%29.74 "Hg6 mi
6:50 AM77 °FPassing clouds.7 mph79%29.74 "HgN/A
6:20 AM75 °FPassing clouds.9 mph83%29.74 "HgN/A
5:50 AM75 °FPassing clouds.7 mph83%29.74 "HgN/A
5:20 AM75 °FPassing clouds.8 mph78%29.74 "HgN/A
4:50 AM77 °FPassing clouds.7 mph74%29.74 "HgN/A
4:20 AM77 °FPassing clouds.6 mph79%29.74 "HgN/A
3:50 AM77 °FPassing clouds.6 mph79%29.74 "HgN/A
3:20 AM77 °FPassing clouds.6 mph79%29.74 "HgN/A
2:50 AM77 °FPassing clouds.7 mph79%29.74 "HgN/A
2:20 AM79 °FClear.3 mph79%29.74 "Hg10 mi
1:50 AM79 °FClear.3 mph84%29.74 "Hg10 mi
1:20 AM79 °FClear.2 mph84%29.74 "Hg10 mi
12:50 AM79 °FClear.2 mph84%29.74 "Hg10 mi
12:20 AM79 °FClear.5 mph84%29.74 "Hg10 mi
11:50 PM
Tue, Jul 26
79 °FClear.5 mph84%29.74 "Hg10 mi
11:20 PM81 °FClear.3 mph79%29.74 "Hg10 mi
10:50 PM81 °FClear.2 mph79%29.74 "Hg10 mi
10:20 PM81 °FClear.2 mph79%29.74 "Hg10 mi
Weather by CustomWeather, © 2016

See weather overviewHow to use our weather pages